User: anonymous   Login
Location: Peebles
(55.6412°N, 3.1714°W)
Time: 07:14:26
(UTC+00:00)
Language:

Cosmos 968 Rocket - Orbit

View from above orbital plane
View from above orbital plane
View from above satellite
View from above satellite

Ground track
Ground track

The orbit data is extracted from the following two-line orbital elements,

1 10521U 77119B   21336.91105672 -.00000002  00000-0  77579-5 0  9993
2 10521  74.0260 130.4788 0019946 106.4372 253.8977 14.40847103306656
Epoch (UTC): 02 December 2021 21:51:55
Eccentricity: 0.0019946
inclination: 74.0260°
perigee height: 741 km
apogee height: 770 km
right ascension of ascending node: 130.4788°
argument of perigee: 106.4372°
revolutions per day: 14.40847103
mean anomaly at epoch: 253.8977°
orbit number at epoch: 30665

The dashed part of the orbit path shows where the satellite is in the earth's shadow,  

DLR